Weather Roundup
Issued by NWS Chicago, IL

Home | Current Version | Previous Version | Graphics & Text | Print | Product List | Glossary On
Versions: 1 2 3 4 5 6 7 8 9 10 11 12 13 14 15 16 17 18 19 20 21 22 23 24 25 26 27 28 29 30 31 32 33 34 35 36 37 38 39 40 41 42 43 44 45 46 47 48 49 50
000
NZUS59 KLOT 210808
HRRLOT

CHICAGO AREA WEATHER ROUNDUP
NATIONAL WEATHER SERVICE CHICAGO/ROMEOVILLE IL
300 AM CDT MON MAY 21 2018

NOTE: "FAIR" INDICATES FEW OR NO CLOUDS BELOW 12,000 FEET WITH NO
SIGNIFICANT WEATHER AND/OR OBSTRUCTIONS TO VISIBILITY.

* THESE STATIONS ARE NOT UNDER NWS QUALITY CONTROL. THEY ALSO MAY NOT
  REPORT WEATHER SUCH AS PRECIPITATION OR FOG.

ILZ005-006-012>014-019>023-210900-
NORTHEAST ILLINOIS

CITY           SKY/WX    TMP DP  RH WIND       PRES   REMARKS
OHARE          CLOUDY    49  43  80 N9        30.14F
MIDWAY         CLOUDY    51  46  83 N6        30.14F
AURORA         CLOUDY    53  49  86 E9        30.13S
LANSING*       CLOUDY    48  48  99 NE6       30.14F
JOLIET*        RAIN      54  53  96 NE6       30.12F
WAUKEGAN       MOCLDY    46  44  93 NE5       30.16S
DUPAGE AIRPORT CLOUDY    50  47  89 NE5       30.14S
WHEELING       CLOUDY    50  43  77 CALM      30.17F
KANKAKEE*      MOCLDY    51  49  96 NE7       30.13S
MORRIS*        CLOUDY    53  49  86 CALM      30.12S
LEWIS AIRPORT* CLOUDY    51  49  92 NE7       30.13S
NORTHERLY ISL    N/A     48  44  86 MISG        N/A
$$

WIZ051-052-058>065-066-070>072-210900-
SOUTHEAST WISCONSIN

CITY           SKY/WX    TMP DP  RH WIND       PRES   REMARKS
MILWAUKEE      MOCLDY    47  41  80 N5        30.17F
KENOSHA*       CLOUDY    46  41  82 CALM      30.17R
RACINE*        CLOUDY    45  41  86 N8        30.18F
BURLINGTON     MOCLDY    46  41  83 CALM      30.16F
WAUKESHA         N/A     43  36  75 CALM      30.18F
WEST BEND        N/A     41  39  93 CALM      30.19S
$$

INZ001>003-010>013-019-020-210900-
NORTHWEST INDIANA

CITY           SKY/WX    TMP DP  RH WIND       PRES   REMARKS
GARY*          CLOUDY    50  47  92 N3        30.15S
MICHIGAN CITY* NOT AVBL
RENSSELAER*    NOT AVBL
VALPARAISO     MOCLDY    55  53  93 NE3       30.13F
$$

LMZ740>746-210900-
SOUTHERN LAKE MICHIGAN

STATION/POSITION TIME  SKY/WX   TEMP WIND        PRES    VSBY
                                AIR  DIR/SP/G
                 (UTC)          (F)  (DEG/KT/KT) (MB)    (MI)
HARRISON CRIB    0740            46   10/  9/  9   N/A
BURNHAM HARBOR   0800            47  340/  6/  9   N/A
CALUMET HARBOR   0742            48  360/  5/  8 1020.4F
BURNS HARBOR     0740            50   50/  4/  6 1021.0F
MICHIGAN CITY    NOT AVBL
$$

ABBREVIATIONS USED IN REMARKS
   TC - TEMPERATURE IN CELSIUS
  WCI - WIND CHILL INDEX
   HX - HEAT INDEX
  VSB - VISIBILITY
$$




USA.gov is the U.S. government's official web portal to all federal, state and local government web resources and services.